Torna al catalogo

STARLINK-32004

AttivoComunicazioniVLEO
NORAD 60151·PAYLOAD·🇺🇸 United States

Lanciato Jun 27, 2024 da Cape Canaveral Space Force Station

Loading…

Prossimi Passaggi (prossime 24 ore)

TLE

AggiornatoSource: CelesTrak SupGP

Epoca: Sep 14, 2026, 22:50 UTC

1 60151C 24120S   26257.95187500 -.00069336  00000+0 -20482-2 0  2572
2 60151  53.1566 157.8097 0001239  79.6543 348.3719 15.34429886    13

Traccia STARLINK-32004 in tempo reale con AllMySat

Download on the App Store